Location: ??????
(55.8274°N, 37.9338°E)
Time: 06:18:24
(UTC+00:00)

IDEFIX/ARIANE 42P - Visible Passes

Search period start: 13 July 2024 00:00
Search period end: 23 July 2024 00:00
Orbit: 782 x 800 km, 98.5° (Epoch: 12 July)

Date Brightness Start Highest point End Pass type
(mag) Time Alt. Az. Time Alt. Az. Time Alt. Az.
13 Jul 4.9 21:34:53 10° ENE 21:36:54 12° E 21:38:56 10° ESE visible
13 Jul 2.9 23:12:22 10° NNE 23:17:32 62° ESE 23:22:39 10° S visible
14 Jul 3.6 22:43:18 10° NNE 22:48:09 38° E 22:52:57 10° SSE visible
15 Jul 4.3 22:14:27 10° NE 22:18:39 24° E 22:22:48 10° SE visible
15 Jul 2.7 23:53:30 10° NNE 23:58:41 71° WNW 00:03:49 10° SSW visible
16 Jul 4.8 21:46:04 10° NE 21:49:00 15° E 21:51:56 10° ESE visible
16 Jul 2.7 23:24:15 10° NNE 23:29:28 75° ESE 23:34:38 10° S visible
17 Jul 3.3 22:55:07 10° NNE 23:00:07 46° E 23:05:02 10° S visible
18 Jul 4.0 22:26:10 10° NNE 22:30:40 29° E 22:35:08 10° SSE visible
19 Jul 2.9 00:05:26 10° N 00:10:32 59° WNW 00:15:36 10° SW visible
19 Jul 4.6 21:57:32 10° NE 22:01:05 18° E 22:04:37 10° SE visible
19 Jul 2.6 23:36:08 10° NNE 23:41:22 89° ESE 23:46:31 10° SSW visible
20 Jul 5.0 21:30:00 10° ENE 21:31:22 11° E 21:32:44 10° E visible
20 Jul 3.0 23:06:56 10° NNE 23:12:04 56° ESE 23:16:54 11° S visible
21 Jul 3.7 22:37:54 10° NNE 22:42:39 35° E 22:47:16 10° SSE visible
22 Jul 3.1 00:17:22 10° N 00:22:21 49° WNW 00:27:19 10° SW visible
22 Jul 4.4 22:09:06 10° NE 22:13:07 22° E 22:17:06 10° SE visible
22 Jul 2.6 23:48:01 10° NNE 23:53:14 76° WNW 23:58:23 10° SSW visible
